Regional Weather Roundup
Issued by NWS

Home | Current Version | Previous Version | Text Only | Print | Product List | Glossary Off
Versions: 1 2 3 4 5 6 7 8 9 10 11 12 13 14 15 16 17 18 19 20 21 22 23 24 25 26 27

000
ASUS43 KDMX 250307
RWRIA

WEATHER ROUNDUP FOR IOWA
NATIONAL WEATHER SERVICE DES MOINES IA
1000 PM CDT FRI OCT 24 2014

NOTE: "FAIR" INDICATES FEW OR NO CLOUDS BELOW 12,000 FEET WITH NO
SIGNIFICANT WEATHER AND/OR OBSTRUCTIONS TO VISIBILITY.

* - THESE STATIONS ARE NOT NWS STATIONS...THUS NOT UNDER NWS
QUALITY CONTROL.  THEY ALSO DO NOT REPORT WEATHER SUCH
AS PRECIPITATION OR FOG.

IAZ001>003-012>014-020>022-031>034-043>046-250400-
   NORTHWEST IOWA

CITY           SKY/WX    TMP DP  RH WIND       PRES   REMARKS
CARROLL *      CLEAR     54  50  87 W7        29.98R
CHEROKEE *     CLEAR     48  48 100 S3        29.98R
DENISON *      CLEAR     52  50  93 SE3       29.97R
LE MARS *      CLEAR     48  45  87 CALM      29.98R
ORANGE CITY *  CLEAR     61  43  51 W5        29.98R
SHELDON *      CLEAR     50  46  87 CALM      29.96S
SIOUX CITY     CLEAR     50  45  83 W3        29.99R
SPENCER        CLEAR     49  44  83 W5        29.97R
STORM LAKE *   CLEAR     59  46  63 W9        29.98R
$$

IAZ055>058-069>071-079>083-090>094-250400-
   SOUTHWEST IOWA

CITY           SKY/WX    TMP DP  RH WIND       PRES   REMARKS
ATLANTIC *     CLEAR     52  52 100 CALM      29.98R FOG
AUDUBON *      CLEAR     50  45  81 CALM      30.00R
CLARINDA *     FOG       52  52 100 CALM      29.99R VSB 0
COUNCIL BLFS * CLEAR     64  59  82 NW5       29.98R
CRESTON *      FOG       59  59 100 NW3       29.98R VSB 1/4
HARLAN  *      CLEAR     52  52 100 CALM      30.02R
LAMONI         PTCLDY    59  59 100 CALM      29.97R FOG
RED OAK *      CLEAR     54  52  94 NE3       29.98R
SHENANDOAH *   CLEAR     54  52  94 CALM      29.99R FOG
$$

IAZ047>049-059>061-072>074-084-250400-
   CENTRAL IOWA

CITY           SKY/WX    TMP DP  RH WIND       PRES   REMARKS
AMES           FOG       52  50  93 CALM      29.95R VSB 1/4
ANKENY *       FOG       55  55 100 CALM      29.95R VSB 0
CHARITON *     FOG       55  55 100 S5        29.97R VSB 0
DES MOINES     FOG       59  58  96 S6        29.95S VSB 3/4
GRINNELL*      FOG       57  55  94 S6        29.95S VSB 1
KNOXVILLE *    FOG       57  57 100 SW6       29.95R VSB 0
MARSHALLTOWN   MOCLDY    56  56 100 SW6       29.94R FOG
PELLA *          N/A     59  59 100 SW5       29.96S FOG
PERRY *          N/A     57  57 100 W8        29.96S FOG
$$

IAZ004>006-015-016-023>025-035-036-250400-
   NORTH CENTRAL IOWA

CITY           SKY/WX    TMP DP  RH WIND       PRES   REMARKS
ALGONA *       CLEAR     54  50  87 W7        29.95R
CLARION *      CLEAR     52  52 100 S6        29.94S
ESTHERVILLE    CLEAR     52  38  58 W7        29.94R
FORT DODGE *   CLEAR     52  48  87 CALM      29.96R
MASON CITY     PTCLDY    50  49  96 SW5       29.94R
FOREST CITY *  FOG       48  48 100 CALM      29.93R VSB 1/4
IOWA FALLS *     N/A     54  54 100 SW3       29.96R FOG
$$

IAZ007>011-017>019-026>030-037>042-050>054-066-250400-
   NORTHEAST IOWA

CITY           SKY/WX    TMP DP  RH WIND       PRES   REMARKS
CEDAR RAPIDS   FOG       54  54 100 S5        29.94S VSB 1/2
CHARLES CITY * FOG       55  55 100 SW5       29.94R VSB 0
CLINTON *      CLOUDY    59  55  88 W5        29.97R
DECORAH *      CLOUDY    59  57  94 S6        29.92S FOG
DUBUQUE        CLOUDY    59  57  93 SW9       29.94R FOG
MONTICELLO *   CLOUDY    59  59 100 CALM      29.94R FOG
OELWEIN *      CLOUDY    59  59 100 SW6       29.94S FOG
WATERLOO       FOG       57  57 100 CALM      29.94R VSB 1/4
$$

IAZ064-065-067-068-078-250400-
   EAST CENTRAL IOWA

CITY           SKY/WX    TMP DP  RH WIND       PRES   REMARKS
DAVENPORT      MOCLDY    56  54  93 SW7       29.95F FOG
IOWA CITY      FOG       53  53 100 CALM      29.96S VSB 1/4
MT. PLEASANT * MOCLDY    55  55 100 SE3       29.96S FOG
MUSCATINE *    FOG       55  55 100 CALM      29.96S VSB 1/2
QUAD CITIES    CLOUDY    60  56  86 W5        29.95S FOG
$$

IAZ062-063-075>077-085>089-095>099-250400-
   SOUTHEAST IOWA

CITY           SKY/WX    TMP DP  RH WIND       PRES   REMARKS
BURLINGTON     MOCLDY    57  55  93 S3        29.96S
FAIRFIELD *      N/A     57  55  94 S3        29.96S
FORT MADISON * PTCLDY    59  59 100 CALM      29.97F FOG
KEOKUK *       MOCLDY    61  59  94 N5        29.96R
OSKALOOSA *    FOG       57  55  94 CALM      29.96S VSB 1/4
CENTERVILLE *  FOG       54  54 100 CALM      29.98S VSB 1/2
OTTUMWA        FOG       56  55  97 SW3       29.95S VSB 1/4
WASHINGTON *   FOG       52  52 100 CALM      29.96R VSB 0
$$

ABBREVIATIONS USED IN REMARKS
   TC - TEMPERATURES IN CELSIUS
  WCI - WIND CHILL INDEX
   HX - HEAT INDEX
  VSB - VISIBILITY
$$




USA.gov is the U.S. government's official web portal to all federal, state and local government web resources and services.